Flag for Brazil Weather past 2 weeks in Curitiba, Paraná, Brazil

Now
66 °F

Mostly cloudy.


Feels Like: 66 °F
Forecast: 65 / 76 °F
Wind: No wind

Location: Curitiba Aeroporto

Current Time: Mar 6, 2015 at 3:42:01 AM

Latest Report: Mar 6, 2015 at 3:00 AM


Visibility: N/A

Pressure: 30.04 "Hg

Humidity: 94%

Dew point: 64 °F

Location of CuritibaLocation

Historic Weather in Curitiba — Graph

°F

Curitiba temperature yesterday

Maximum temperature yesterday: 82 °F (at 3:00 PM)
Minimum temperature yesterday: 32 °F (at 7:00 PM)
Average temperature yesterday: 69 °F

Past Weeks' High & Low Weather Summary

 TemperatureHumidityPressure
High86 °F (Feb 27, 2:00 PM)100% (Feb 21, 5:00 AM)30.24 "Hg (Feb 21, 5:00 AM)
Low32 °F (Mar 5, 7:00 PM)38% (Feb 27, 2:00 PM)29.86 "Hg (Feb 19, 4:00 PM)
Average70 °F80%30.10 "Hg
* Reported Feb 19 3:00 AM — Mar 6 2:00 AM, Curitiba, Weather by CustomWeather, © 2015

Note: Actual official high and low records may vary slightly from our data, if they occured in-between our weather recording intervals... More about our weather records

Advertising

Curitiba weather history for previous 24 hours

 ConditionsComfort  
Time TempWeatherWind HumidityBarometerVisibility
2:00 AM
Fri, Mar 6
66 °FPartly cloudy.No wind94%30.04 "HgN/A
1:00 AM66 °FPartly cloudy.No wind94%30.04 "HgN/A
12:00 AM66 °FPassing clouds.No wind94%30.07 "HgN/A
11:00 PM
Thu, Mar 5
66 °FLight rain. Mostly cloudy.2 mph94%30.07 "HgN/A
10:00 PM66 °FLight rain. Mostly cloudy.2 mph94%30.09 "HgN/A
9:00 PM66 °FRain. Mostly cloudy.5 mph94%30.07 "Hg5 mi
8:00 PM68 °FHeavy rain. Mostly cloudy.6 mph88%30.07 "Hg2 mi
7:00 PM32 °FStrong thunderstorms. Mostly cloudy.5 mph100%30.07 "Hg2 mi
6:00 PM68 °FScattered showers. Fog.6 mph94%30.04 "Hg2 mi
5:00 PMN/AThunderstorms.5 mphN/AN/A2 mi
4:00 PM73 °FScattered showers. Partly sunny.9 mph69%N/AN/A
3:00 PM82 °FPartly sunny.5 mph51%30.01 "HgN/A
2:00 PM81 °FPartly sunny.8 mph62%30.04 "HgN/A
1:00 PM79 °FPartly sunny.10 mph61%30.07 "HgN/A
12:00 PM81 °FBroken clouds.7 mph62%30.07 "HgN/A
10:00 AM75 °FBroken clouds.7 mph69%30.12 "HgN/A
9:00 AM73 °FBroken clouds.7 mph74%30.12 "HgN/A
8:00 AM72 °FScattered clouds.6 mph83%30.09 "HgN/A
6:45 AM68 °FScattered clouds.5 mph94%30.09 "HgN/A
6:00 AM68 °FPartly sunny.3 mph94%30.07 "HgN/A
5:00 AM68 °FPartly cloudy.2 mph88%30.07 "HgN/A
4:00 AM66 °FPartly cloudy.No wind94%30.07 "HgN/A
3:00 AM66 °FPartly cloudy.3 mph94%30.07 "HgN/A
Weather by CustomWeather, © 2015

See weather overviewHow to use our weather pages